METEOR 2-14

导读

METEOR 2-14是独联体(CIS)发射的第二代极轨气象卫星,属于苏联/俄罗斯“流星(METEOR)”气象卫星系列。该卫星于1986年5月27日发射升空,运行于近地轨道,主要承担气象观测、气候研究与灾害监测任务,为天气预报和全球气象研究提供关键数据支持,延续了“流星”系列持续服务气象领域的任务目标。

基本信息
目录编号:
16735
目录名称:
METEOR 2-14
国际标识:
1986-039A
轨道中心:
EARTH
卫星名称:
METEOR 2-14
卫星全名:
--
卫星状态:
在轨 (已飞行14718 天)
发射日期:
1986-05-27 UTC
国别 :
俄罗斯(独联体) (CIS)
星等 :
--
该卫星已列入 空间交会检测服务 Space Conjunction Data Service (SCDS) ,当前飞行风险评估等级: 无高风险
轨道信息
数据来源 国际轨道数据 AOE轨道数据
星历时间 2026-09-12T05:13:46+0800
9小时前
查看轨道信息
2026-09-06T17:00:00+0800
5天前
查看轨道信息
半长轴 7322.381km 7322.381km
偏心率 0.0013788 0.0013905
轨道倾角 82.536° 82.531°
近地点辐角 325.145° 341.290°
升交点赤经 214.707° 219.098°
平近点角 102.147° 339.769°
近地点 934.147km 934.062km
远地点 954.341km 954.426km
周期 103.929分钟 103.929分钟
每日圈数 13.855567 13.855569
详细信息
使用方式:
暂无
2D轨道图
3D轨道图
轨道高度分析图
轨道倾角分析图
轨道综合分析图
查看轨道综合分析图
交会数据列表
事件ID 空间交会对象 最接近时刻(TCA) 交会距离 交会风险概率(CRP) 交会风险指数(CRI) 操作
CDM_260913-043201-271201-673525
2026-09-13T
04:32:34+0000
1.040 km
极远距离
1.045586E-5 中风险 0.55
与全量物体交会距离演化趋势
与全量物体交会风险概率演化趋势